#timestamp,LO_Frequency,Hit,StdDev 
1592848815.2,286047005.3,N
1592848835.1,286047005.2,N
1592848836.0,286047005.2,N
1592848855.8,286047004.8,N
1592848875.7,286047008.8,Y
1592848895.5,286047004.3,P
1592848915.3,286047005.9,P
1592848935.2,286047004.9,P
1592848955.0,286047010.5,Y
1592848955.9,286047010.5,P
1592848975.8,286047008.2,P
1592848995.6,286047009.1,P
1592849015.4,286047008.5,Y
1592849035.3,286046998.5,P
1592849055.1,286047001.2,N
1592849075.8,286046999.0,N
1592849095.7,286046998.1,N
1592849115.5,286047002.6,N
1592849135.4,286047001.4,N
1592849155.2,286047000.3,N
1592849175.0,286047001.1,N
1592849175.9,286047001.1,N
1592849195.8,286047002.4,N
1592849215.6,286047001.4,N
1592849235.4,286047003.4,N
1592849255.3,286047007.1,N
1592849275.1,286047011.4,Y
1592849295.9,286047008.0,P
1592849315.7,286047010.8,P
1592849335.5,286047008.8,N
1592849355.4,286047011.9,Y
1592849375.2,286047002.5,P
1592849395.0,286046998.3,N
1592849395.9,286046998.3,N
1592849415.8,286046996.9,N
1592849435.6,286047000.5,N
1592849455.5,286046996.6,N
1592849475.3,286046998.7,N
1592849495.1,286046998.9,N
1592849515.9,286046998.2,N
1592849535.7,286047000.2,N
1592849555.5,286047004.7,N
1592849575.4,286047006.5,N
1592849595.2,286047006.8,N
1592849615.1,286047010.5,N
1592849616.0,286047010.5,N
1592849635.8,286047008.5,N
1592849655.6,286047010.2,N
1592849675.5,286047008.1,N
1592849695.3,286047006.9,N
1592849715.1,286047007.5,N
1592849735.9,286047007.6,N
1592849755.7,286047008.5,N
1592849775.6,286047004.8,N
1592849795.4,286047006.3,N
1592849815.2,286047008.5,N
1592849835.1,286047007.2,N
1592849836.0,286047007.2,N
1592849855.8,286047005.9,N
1592849875.6,286047002.9,N
1592849895.5,286047003.7,N
1592849915.3,286047005.4,N
1592849935.2,286047005.2,N
1592849955.9,286047005.8,N
1592849975.7,286047005.0,N
1592849995.6,286047002.9,N
1592850015.4,286047005.6,N
1592850035.3,286047004.7,N
1592850055.1,286047002.9,N
1592850056.0,286047002.9,N
1592850075.8,286047003.2,N
1592850095.7,286047005.3,N
1592850115.5,286047002.9,N
1592850135.3,286047005.5,N
1592850155.2,286047004.9,N
1592850175.0,286047008.7,Y
1592850175.9,286047008.7,P
1592850195.8,286047003.5,N
1592850215.6,286047002.3,N
1592850235.4,286047001.8,N
1592850255.3,286047000.7,N
1592850275.1,286047000.2,N
1592850295.8,286047001.0,N
1592850315.7,286046998.4,N
1592850335.5,286046998.4,N
1592850355.4,286046998.5,N
1592850375.2,286046996.9,N
1592850395.0,286046999.9,N
1592850395.9,286046999.9,N
1592850415.8,286046997.7,N
1592850435.6,286046998.5,N
1592850455.4,286046998.6,N
1592850475.3,286046998.7,N
1592850495.1,286047001.1,N
1592850515.9,286047000.3,N
1592850535.7,286046996.5,N
1592850555.5,286046998.3,N
1592850575.4,286047002.7,N
1592850595.2,286047001.5,N
1592850615.0,286047004.1,N
1592850615.9,286047004.1,N
1592850635.8,286047005.8,N
1592850655.6,286047005.1,N
1592850675.5,286047003.2,N
1592850695.3,286047005.5,N
1592850715.1,286047004.5,N
1592850735.9,286047003.1,N
1592850755.7,286047003.5,N
1592850775.5,286047004.6,N
1592850795.4,286047005.3,N
1592850815.2,286047004.9,N
1592850835.1,286047004.6,N
1592850836.0,286047004.6,N
1592850855.8,286047008.9,N
1592850875.6,286047010.4,Y
1592850895.5,286047011.7,P
1592850915.3,286047013.2,N
1592850935.1,286047014.6,N
1592850955.9,286047017.2,Y
1592850975.7,286047005.0,P
1592850995.6,286047006.7,N
1592851015.4,286047009.1,P
1592851035.2,286047006.1,N
1592851055.1,286047008.4,Y
1592851056.0,286047008.4,P
1592851075.8,286047001.4,N
1592851095.7,286047004.2,N
1592851115.5,286047003.0,N
1592851135.3,286047002.9,N
1592851155.2,286047004.4,N
1592851175.0,286047003.4,N
1592851175.9,286047003.4,N
1592851195.7,286047001.4,N
1592851215.6,286047004.1,N
1592851235.4,286047006.0,N
1592851255.3,286047005.7,N
1592851275.1,286047008.5,Y
1592851276.0,286047008.5,P
1592851295.8,286047003.5,N
1592851315.7,286047003.1,N
1592851335.5,286047006.8,Y
1592851355.3,286047000.3,P
1592851375.2,286046998.4,N
1592851395.0,286047002.7,N
1592851395.9,286047002.7,N
1592851415.8,286047001.6,N
1592851435.6,286047000.2,N
1592851455.4,286047000.5,N
1592851475.3,286047000.7,N
1592851495.1,286047002.6,N
1592851515.8,286047001.7,N
1592851535.7,286047003.4,N
1592851555.5,286047006.0,Y
1592851575.4,286047004.2,P
1592851595.2,286047003.2,N
1592851615.0,286047004.1,P
1592851615.9,286047004.1,Y
1592851635.8,286047000.7,P
1592851655.6,286046999.0,N
1592851675.5,286046998.3,N
1592851695.3,286046999.9,N
1592851715.1,286047002.0,N
1592851735.9,286047002.2,N
1592851755.7,286047004.2,N
1592851775.5,286047005.7,N
1592851795.4,286047005.1,N
1592851815.2,286047004.5,N
1592851835.1,286047005.0,N
1592851836.0,286047005.0,N
1592851855.8,286047007.4,Y
1592851875.6,286047005.7,P
1592851895.5,286047005.1,P
1592851915.3,286047005.0,P
1592851935.2,286047005.2,Y
1592851955.9,286047000.1,P
1592851975.7,286047002.6,N
1592851995.6,286047005.8,P
1592852015.4,286047003.9,N
1592852035.3,286047004.0,N
1592852055.1,286047003.9,N
1592852056.0,286047003.9,N
1592852075.8,286047002.6,N
1592852095.7,286047002.0,N
1592852115.5,286047002.2,N
1592852135.3,286047003.9,N
1592852155.2,286047001.9,N
1592852175.0,286047005.4,Y
1592852175.9,286047005.4,P
1592852195.8,286047001.8,N
1592852215.6,286047001.8,N
1592852235.4,286047002.1,N
1592852255.3,286047002.7,N
1592852275.1,286047002.7,N
1592852295.9,286047002.7,N
1592852315.7,286047001.8,N
1592852335.5,286047001.8,N
1592852355.4,286047000.4,N
1592852375.2,286046999.2,N
1592852395.0,286047001.1,N
1592852395.9,286047001.1,N
